Home   Weather   Nürtingen   Past weeks

Flag for Germany Past Weather in Nürtingen, Baden-Württemberg, Germany — Yesterday and Last 2 Weeks

Now
45 °F

Rain. Partly cloudy.


Feels Like: 39 °F
Forecast: 45 / 51 °F
Wind: 10 mph from Southwest

Location: Stuttgart-Echterdingen

Current Time: Feb 20, 2017 at 7:37:03 pm

Latest Report: Feb 20, 2017 at 7:20 pm


Visibility: 5 mi

Pressure: 30.09 "Hg

Humidity: 87%

Dew Point: 41 °F

Location of NürtingenLocation

Past Weather in Nürtingen — Graph

°F

Nürtingen Temperature Yesterday

Maximum temperature yesterday: 48 °F (at 2:20 pm)
Minimum temperature yesterday: 27 °F (at 5:20 am)
Average temperature yesterday: 38 °F

High & Low Weather Summary for the Past Weeks

 TemperatureHumidityPressure
High59 °F (Feb 16, 2:50 pm)100% (Feb 11, 3:20 am)30.54 "Hg (Feb 11, 3:20 am)
Low23 °F (Feb 11, 5:20 am)47% (Feb 15, 3:50 pm)29.59 "Hg (Feb 5, 6:20 pm)
Average37 °F81%30.20 "Hg
* Reported Feb 5 6:20 pm — Feb 20 6:20 pm, Nürtingen, Weather by CustomWeather, © 2017

Note: Actual official high and low records may vary slightly from our data, if they occured in-between our weather recording intervals... More about our weather records

Advertising

Nürtingen Weather History for the Previous 24 Hours

Scroll right to see more
 ConditionsComfort  
Time TempWeatherWind HumidityBarometerVisibility
6:20 pm
Mon, Feb 20
46 °FLight rain. Passing clouds.10 mph76%30.09 "HgN/A
5:50 pm46 °FPartly sunny.12 mph76%30.09 "HgN/A
5:20 pm46 °FPartly sunny.13 mph76%30.09 "HgN/A
4:50 pm48 °FPartly sunny.14 mph71%30.09 "HgN/A
4:20 pm48 °FPartly sunny.13 mph71%30.12 "HgN/A
3:50 pm48 °FPartly sunny.13 mph71%30.12 "HgN/A
3:20 pm48 °FPartly sunny.14 mph71%30.12 "HgN/A
2:50 pm46 °FPartly sunny.15 mph76%30.12 "HgN/A
2:20 pm48 °FPartly sunny.14 mph71%30.15 "HgN/A
1:50 pm48 °FPartly sunny.16 mph71%30.15 "HgN/A
1:20 pm46 °FPartly sunny.13 mph76%30.15 "HgN/A
12:50 pm46 °FPartly sunny.10 mph76%30.15 "HgN/A
12:20 pm46 °FBroken clouds.12 mph71%30.18 "HgN/A
11:50 am46 °FLight rain. Partly sunny.13 mph71%30.18 "HgN/A
11:20 am46 °FPartly sunny.14 mph71%30.21 "HgN/A
10:50 am46 °FScattered clouds.12 mph66%30.21 "HgN/A
10:20 am46 °FScattered clouds.13 mph76%30.21 "HgN/A
9:50 am45 °FPassing clouds.8 mph76%30.18 "HgN/A
9:20 am43 °FPartly sunny.6 mph81%30.18 "HgN/A
8:50 am43 °FPartly sunny.3 mph81%30.18 "HgN/A
8:20 am41 °FPartly sunny.5 mph81%30.18 "HgN/A
7:50 am41 °FPartly sunny.6 mph81%30.18 "HgN/A
7:20 am41 °FPartly cloudy.5 mph81%30.18 "HgN/A
6:50 am41 °FPartly cloudy.3 mph81%30.18 "HgN/A
6:20 am41 °FPartly cloudy.5 mph81%30.18 "HgN/A
5:50 am41 °FPassing clouds.5 mph81%30.18 "HgN/A
5:20 am41 °FPassing clouds.3 mph81%30.18 "HgN/A
4:50 am41 °FPassing clouds.5 mph81%30.18 "HgN/A
4:20 am41 °FPartly cloudy.3 mph81%30.18 "HgN/A
3:50 am41 °FPassing clouds.5 mph81%30.18 "HgN/A
3:20 am41 °FPassing clouds.3 mph81%30.18 "HgN/A
2:50 am41 °FPassing clouds.3 mph81%30.18 "HgN/A
2:20 am43 °FPartly cloudy.3 mph71%30.18 "HgN/A
1:50 am43 °FClear.3 mph76%30.18 "Hg10 mi
1:20 am43 °FPassing clouds.3 mph76%30.21 "HgN/A
12:50 am41 °FPartly cloudy.3 mph81%30.21 "HgN/A
12:20 am41 °FPartly cloudy.5 mph81%30.21 "HgN/A
11:50 pm
Sun, Feb 19
41 °FPartly cloudy.2 mph81%30.21 "HgN/A
11:20 pm41 °FPartly cloudy.2 mph81%30.21 "HgN/A
10:50 pm43 °FPassing clouds.3 mph76%30.18 "HgN/A
10:20 pm41 °FPassing clouds.2 mph81%30.18 "HgN/A
9:50 pm43 °FPassing clouds.3 mph76%30.18 "HgN/A
9:20 pm43 °FPassing clouds.9 mph76%30.18 "HgN/A
8:50 pm43 °FPassing clouds.5 mph76%30.18 "HgN/A
8:20 pm43 °FPassing clouds.5 mph71%30.18 "HgN/A
7:50 pm45 °FPassing clouds.3 mph66%30.18 "HgN/A
7:20 pm43 °FPassing clouds.5 mph71%30.18 "HgN/A
Weather by CustomWeather, © 2017

See weather overviewHow to use our weather pages